• Join FlightAware (Why Join?)
  • Login
  • US Flag 
01:14PM EST


 

Airport Tracker/Info


-or-


 

Live Flight TrackerFlight Track Log ✈ SWA864 ✈ 13-Jul-2013 ✈ KDEN - KSLC

Flight Track Log - Related Links

Times and Time Zones

All times are in EDT time to prevent confusion due to time zone crossing. See the SWA864 flight status page for this flight to view local times or setup timezone preferences in your user account.

Time Position Orientation Groundspeed Altitude Reporting Facility
EDT Latitude Longitude Course Direction KTS MPH feet Rate Location/Type
02:11PM 39.8500 -104.7833 278° West 202 232 7,400  Level Denver TRACON
02:12PM 39.8833 -104.8667 298° West 260 299 9,900 2,514 Climbing Denver TRACON
02:13PM 39.8928 -104.9306 281° West 264 304 11,800 2,944 Climbing Denver Center
02:14PM 39.8839 -105.0342 264° West 279 321 15,200 2,880 Climbing Denver Center
02:15PM 39.8600 -105.1325 252° West 287 330 17,800 2,613 Climbing Denver Center
02:16PM 39.9073 -105.3491 278° West  Level FlightAware Approximate
02:16PM 39.8647 -105.2453 273° West 293 337 20,600  Level Denver Center
02:17PM 39.8975 -105.3569 291° West 328 377 22,300 1,306 Climbing Denver Center
02:18PM 39.9286 -105.4925 287° West 370 426 23,300 968 Climbing Denver Center
02:19PM 39.9461 -105.6192 280° West 408 470 24,300 1,597 Climbing Denver Center
02:20PM 39.9608 -105.7981 276° West 416 479 26,600 1,839 Climbing Denver Center
02:21PM 39.9700 -105.9528 274° West 424 488 28,100 1,500 Climbing Denver Center
02:22PM 39.9789 -106.1150 274° West 445 512 29,700 1,790 Climbing Denver Center
02:23PM 39.9878 -106.2753 274° West 446 513 31,800 1,839 Climbing Denver Center
02:24PM 39.9972 -106.4314 275° West 434 499 33,500 1,597 Climbing Denver Center
02:25PM 40.0067 -106.5961 274° West 436 502 35,100 1,210 Climbing Denver Center
02:26PM 40.0139 -106.7706 273° West 432 497 36,000 435 Climbing Denver Center
02:27PM 40.0231 -106.9225 275° West 438 504 36,000  Level Denver Center
02:28PM 40.0306 -107.0983 273° West 436 502 36,000 48 Level Denver Center
02:29PM 40.0383 -107.2478 274° West 434 499 36,100 726 Climbing Denver Center
02:30PM 40.0467 -107.4214 274° West 431 496 37,500 919 Climbing Denver Center
02:31PM 40.0531 -107.5697 273° West 430 495 38,000 242 Climbing Denver Center
02:32PM 40.0594 -107.7422 273° West 428 493 38,000  Level Denver Center
02:33PM 40.0672 -107.8908 274° West 429 494 38,000  Level Denver Center
02:34PM 40.0750 -108.0636 273° West 429 494 38,000  Level Denver Center
02:35PM 40.0803 -108.2106 273° West 427 491 38,000  Level Denver Center
02:36PM 40.0861 -108.3333 274° West 427 491 38,000  Level Denver Center
02:37PM 40.0928 -108.4806 273° West 426 490 38,000  Level Salt Lake Center
02:38PM 40.1000 -108.6511 273° West 425 489 38,000  Level Salt Lake Center
02:39PM 40.1053 -108.7944 273° West 417 480 38,000  Level Salt Lake Center
02:40PM 40.1111 -108.9619 273° West 415 478 38,000  Level Salt Lake Center
02:41PM 40.1164 -109.1025 273° West 410 472 38,000  Level Salt Lake Center
02:42PM 40.1217 -109.2678 272° West 409 471 38,000  Level Salt Lake Center
02:43PM 40.1233 -109.3147 273° West 407 468 38,000 -581 Level Denver Center
02:43PM 40.1267 -109.4089 273° West 407 468 37,400 -1,021 Descending Salt Lake Center
02:44PM 40.1325 -109.5733 273° West 407 468 36,400 -919 Descending Salt Lake Center
02:45PM 40.1369 -109.7172 272° West 413 475 35,500 -968 Descending Salt Lake Center
02:46PM 40.1428 -109.8858 273° West 416 479 34,400 -968 Descending Salt Lake Center
02:47PM 40.1467 -110.0328 272° West 422 486 33,500 -968 Descending Salt Lake Center
02:48PM 40.1481 -110.2047 271° West 424 488 32,400 -968 Descending Salt Lake Center
02:50PM 40.1469 -110.3536 269° West 427 491 31,500 -1,016 Descending Salt Lake Center
02:51PM 40.1458 -110.5286 270° West 431 496 30,300 -726 Descending Salt Lake Center
02:52PM 40.1436 -110.6758 269° West 426 490 30,000 -242 Descending Salt Lake Center
02:53PM 40.1419 -110.8475 269° West 424 488 29,800 -1,065 Descending Salt Lake Center
02:54PM 40.1406 -110.9883 269° West 420 483 27,800 -2,081 Descending Salt Lake Center
02:55PM 40.1383 -111.1336 269° West 403 464 25,500 -2,177 Descending Salt Lake Center
02:56PM 40.1369 -111.2744 269° West 390 449 23,300 -2,323 Descending Salt Lake Center
02:57PM 40.1333 -111.4383 268° West 377 434 20,700 -2,081 Descending Salt Lake Center
02:58PM 40.1394 -111.5706 274° West 365 420 19,000 -1,500 Descending Salt Lake Center
02:59PM 40.1919 -111.6853 301° West 369 425 17,600 -1,692 Descending Salt Lake Center
03:00PM 40.2467 -111.7944 303° West 361 415 15,700 -1,258 Descending Salt Lake Center
03:01PM 40.3072 -111.8961 308° West 342 394 15,000 -1,237 Descending Salt Lake Center
03:02PM 40.3781 -111.9644 324° Northwest 324 373 13,000 -1,008 Descending Salt Lake Center
03:03PM 40.4556 -112.0444 322° Northwest 306 352 13,000  Level Salt Lake Center
03:04PM 40.5297 -112.0928 334° Northwest 308 354 13,000 -797 Level Salt Lake Center
03:05PM 40.6261 -112.0914 North 313 360 11,300 -992 Descending Salt Lake Center
03:06PM 40.7000 -112.0947 358° North 296 341 11,000 -165 Descending Salt Lake Center
03:07PM 40.7672 -112.0975 358° North 261 300 11,000  Level Salt Lake Center
03:08PM 40.8397 -112.1042 356° North 262 302 11,000 -283 Level Salt Lake Center
03:09PM 40.9186 -112.1114 356° North 261 300 10,400 -803 Descending Salt Lake Center
03:10PM 40.9867 -112.1083 North 258 297 9,300 -1,537 Descending Salt Lake Center
03:11PM 40.9728 -112.0364 104° East 238 274 7,300 -1,475 Descending Salt Lake Center
03:12PM 40.9194 -112.0061 157° South 204 235 6,300 -945 Descending Salt Lake Center
03:13PM 40.8639 -111.9853 164° South 174 200 5,300 -898 Descending Salt Lake Center
03:14PM 40.8197 -111.9806 175° South 162 186 4,400 -885 Descending Salt Lake Center
03:16PM 40.7833 -111.9667 North  Level FlightAware Approximate